Content
SEND FEEDBACK

Daily
Averages
Monthly
Summary
French Polynesia

PAPEETE, FRENCH POLYNESIA


Home > Oceania > French Polynesia
Elevation: 7 feet     Latitude: 17 33S     Longitude: 149 36W

WEATHER
 
SELECT A DAY
Number of Records: 217,389;   Date Range: 6/30/96 - 12/18/14
 
SHARE

PRINT THIS DATA

[ ← Previous Day ]
WEATHER ALMANAC - MARCH 19, 2013
[ Next Day → ]
[ °C ]   °F
Weather ElementAverageHighLow
Temperature81.8 °F87.8 °F (11:04 am)77 °F (12:30 am)
Dewpoint72.5 °F75.2 °F (2:00 pm)69.8 °F (12:30 am)
Humidity72.3 %83 % (4:30 am)54 % (11:00 am)
Barometer29.94 in30.01 in (10:30 pm)29.89 in (1:30 am)
Wind Speed4.8 mph13.4 mph (11:00 am)
Weather ElementAverage
Visibility7.6 mi
Wind DirectionESE (120.7 °)

Weather ElementTotal
Precipitation---
Cooling Degree Days17.4 (Base 65)
Growing Degree Days32.4 (Base 50)
Averaged from 55 records on March 19, 2013
WEATHER CONDITIONS BREAKOUT
WIND DIRECTION BREAKOUT
WEATHER BY HOUR - MARCH 19, 2013
[ °C ]   °F
Local TimeTemperatureDewpointHumidityBarometerVisibilityWind DirectionWind SpeedGust SpeedPrecipitationEventsConditions
12:30 AM77.0 °F69.8 °F78 %29.92 in6.2 miEast (90°)3.5 mphMostly Cloudy
1:00 AM77.0 °F69.8 °F78 %29.92 in6.2 miESE (120°)3.5 mphMostly Cloudy
1:30 AM78.8 °F69.8 °F74 %29.89 in6.2 miCalmMostly Cloudy
2:00 AM78.0 °F70.0 °F69 %29.90 in12.0 miEast (80°)3.5 mphPartly Cloudy
2:00 AM77.0 °F69.8 °F78 %29.89 in6.2 miEast (80°)3.5 mphMostly Cloudy
2:30 AM77.0 °F69.8 °F78 %29.89 in6.2 miSSE (150°)3.5 mphScattered Clouds
3:00 AM77.0 °F69.8 °F78 %29.89 in6.2 miESE (120°)2.3 mphScattered Clouds
3:30 AM77.0 °F69.8 °F78 %29.89 in6.2 miVariable3.5 mph
4:00 AM77.0 °F69.8 °F78 %29.89 in6.2 miVariable2.3 mph
4:30 AM77.0 °F71.6 °F83 %29.89 in6.2 miSSE (150°)2.3 mph
5:00 AM77.0 °F71.0 °F76 %29.90 in37.0 miESE (120°)2.2 mphClear
5:00 AM77.0 °F71.6 °F83 %29.89 in6.2 miVariable1.2 mph
5:30 AM77.0 °F69.8 °F78 %29.92 in6.2 miVariable2.3 mph
6:00 AM77.0 °F69.8 °F78 %29.92 in6.2 miENE (70°)5.8 mphMostly Cloudy
6:30 AM77.0 °F69.8 °F78 %29.95 in6.2 miEast (100°)4.6 mphScattered Clouds
7:00 AM78.8 °F69.8 °F74 %29.95 in6.2 miEast (100°)4.6 mphPartly Cloudy
7:30 AM82.4 °F71.6 °F70 %29.95 in6.2 miCalmPartly Cloudy
8:00 AM83.0 °F71.0 °F60 %29.98 in16.0 miWSW (250°)2.3 mphPartly Cloudy
8:00 AM84.2 °F71.6 °F66 %29.98 in6.2 miVariable2.3 mphPartly Cloudy
8:30 AM84.2 °F73.4 °F70 %29.98 in6.2 miSW (220°)5.8 mphPartly Cloudy
9:00 AM86.0 °F73.4 °F66 %29.98 in6.2 miSW (230°)5.8 mphScattered Clouds
9:30 AM86.0 °F73.4 °F66 %29.98 in6.2 miWSW (240°)4.6 mphPartly Cloudy
10:00 AM84.2 °F73.4 °F70 %29.98 in6.2 miWest (280°)3.5 mphScattered Clouds
10:30 AM86.0 °F73.4 °F66 %29.95 in6.2 miSW (230°)4.6 mphScattered Clouds
11:00 AM87.0 °F73.0 °F54 %29.96 in12.0 miSW (230°)13.4 mphScattered Clouds
11:04 AM87.8 °F73.4 °F62 %29.95 in6.2 miSW (230°)6.9 mphPartly Cloudy
11:30 AM86.0 °F73.4 °F66 %29.95 in6.2 miSW (220°)6.9 mphMostly Cloudy
12:00 PM87.8 °F73.4 °F62 %29.95 in6.2 miSW (230°)6.9 mphMostly Cloudy
12:30 PM87.8 °F73.4 °F62 %29.92 in6.2 miSW (230°)5.8 mphScattered Clouds
1:00 PM87.8 °F73.4 °F62 %29.92 in6.2 miVariable2.3 mphScattered Clouds
1:30 PM86.0 °F73.4 °F66 %29.92 in6.2 miSSW (210°)5.8 mphScattered Clouds
2:00 PM87.0 °F75.0 °F60 %29.92 in12.0 miSSW (200°)10.4 mphThunderstormThunderstorm
2:00 PM86.0 °F75.2 °F70 %29.92 in6.2 miSSW (200°)10.4 mphThunderstormScattered Clouds
2:30 PM84.2 °F75.2 °F74 %29.89 in6.2 miSouth (190°)9.2 mphScattered Clouds
3:00 PM84.2 °F73.4 °F70 %29.89 in6.2 miSSE (160°)6.9 mphScattered Clouds
3:30 PM84.2 °F73.4 °F70 %29.89 in6.2 miSSW (200°)4.6 mphMostly Cloudy
4:00 PM84.2 °F75.2 °F74 %29.89 in6.2 miSouth (190°)6.9 mphMostly Cloudy
4:30 PM84.2 °F75.2 °F74 %29.89 in6.2 miSSW (200°)6.9 mphMostly Cloudy
5:00 PM84.0 °F74.0 °F66 %29.91 in16.0 miSSW (200°)9.2 mphPartly Cloudy
5:00 PM84.2 °F75.2 °F74 %29.89 in6.2 miSSW (200°)9.2 mphMostly Cloudy
5:30 PM84.2 °F73.4 °F70 %29.92 in6.2 miSouth (190°)8.1 mphMostly Cloudy
6:00 PM82.4 °F73.4 °F74 %29.92 in6.2 miVariable3.5 mphMostly Cloudy
6:30 PM82.4 °F73.4 °F74 %29.92 in6.2 miVariable3.5 mphMostly Cloudy
7:00 PM82.4 °F73.4 °F74 %29.95 in6.2 miEast (100°)3.5 mphMostly Cloudy
7:30 PM80.6 °F73.4 °F79 %29.95 in6.2 miVariable2.3 mphMostly Cloudy
8:00 PM81.0 °F74.0 °F72 %29.98 in12.0 miEast (100°)6.7 mphPartly Cloudy
8:00 PM80.6 °F73.4 °F79 %29.98 in6.2 miVariable3.5 mphMostly Cloudy
8:30 PM80.6 °F73.4 °F79 %29.98 in6.2 miVariable2.3 mphMostly Cloudy
9:00 PM80.6 °F73.4 °F79 %29.98 in6.2 miCalmScattered Clouds
9:30 PM80.6 °F73.4 °F79 %29.98 in6.2 miVariable1.2 mphScattered Clouds
10:00 PM80.6 °F73.4 °F79 %29.98 in6.2 miSSE (160°)4.6 mphScattered Clouds
10:30 PM80.6 °F73.4 °F79 %30.01 in6.2 miENE (60°)5.8 mphThunderstormScattered Clouds
11:00 PM80.0 °F72.0 °F71 %29.99 in12.0 miEast (100°)6.9 mphThunderstormThunderstorm
11:00 PM80.6 °F71.6 °F74 %29.98 in6.2 miEast (100°)6.9 mphThunderstormScattered Clouds
11:30 PM78.8 °F71.6 °F78 %29.98 in6.2 miESE (110°)3.5 mphScattered Clouds
Hourly data recorded from NTAA, located miles away from Papeete, French Polynesia







STORIES FROM OUR PARTNERS